HB9KNR Weather Reports


Display with metric or nautical units.
time (UTC)temp
F
wind
direction
speed
MPH
gust
MPH
rain 1hr
in
rain 24hr
in
rain mn
in
humidity
%
barometer
mb
20260509130517 70 23 1.0 3.0 0.00 0.01 0.01 44 1014.8
20260509125516 71 0.0 4.0 0.00 0.01 0.01 45 1015.0
20260509124536 71 0.0 2.0 0.00 0.01 0.01 42 1015.0
20260509123556 70 0.0 2.0 0.00 0.01 0.01 43 1015.1
20260509122538 70 0.0 3.0 0.00 0.01 0.01 44 1015.3
20260509121516 70 0 1.0 3.0 0.00 0.01 0.01 46 1015.4
20260509120516 70 0.0 3.0 0.00 0.01 0.01 48 1015.5
20260509115516 70 0.0 3.0 0.00 0.01 0.01 50 1015.7
20260509114516 70 0.0 4.0 0.00 0.01 0.01 54 1015.9
20260509113536 70 0.0 1.0 0.00 0.01 0.01 57 1016.0
20260509112516 69 0.0 4.0 0.00 0.01 0.01 61 1016.1
20260509111516 69 0.0 2.0 0.00 0.01 0.01 63 1016.2
20260509110536 68 0.0 2.0 0.00 0.01 0.01 68 1016.3
20260509105516 68 0.0 2.0 0.00 0.01 0.01 67 1016.4
20260509104516 68 0.0 2.0 0.00 0.01 0.01 67 1016.5
20260509103516 67 0.0 3.0 0.00 0.01 0.01 69 1016.8
20260509102536 67 0.0 4.0 0.00 0.01 0.01 68 1016.6
20260509101516 66 0.0 2.0 0.00 0.01 0.01 69 1016.9
20260509100536 65 0.0 0.0 0.00 0.01 0.01 72 1016.8
20260509095537 65 0.0 0.0 0.00 0.01 0.01 71 1016.8
20260509094516 64 0.0 0.0 0.00 0.01 0.01 71 1016.9
20260509093516 64 0.0 0.0 0.00 0.01 0.01 71 1017.0
20260509092516 64 0.0 0.0 0.00 0.01 0.01 70 1017.0
20260509091516 64 0.0 0.0 0.00 0.01 0.01 73 1017.1
20260509090516 63 0.0 0.0 0.00 0.01 0.01 72 1017.1
20260509085516 62 0.0 0.0 0.00 0.01 0.01 72 1017.1
20260509084536 62 0.0 0.0 0.00 0.01 0.01 73 1017.1
20260509083516 61 0.0 0.0 0.00 0.01 0.01 75 1017.2
20260509082516 61 0.0 0.0 0.00 0.01 0.01 77 1017.3
20260509081516 61 0.0 0.0 0.00 0.01 0.01 76 1017.4
20260509080536 61 0.0 0.0 0.00 0.01 0.01 79 1017.5
20260509075516 59 0.0 0.0 0.00 0.01 0.01 81 1017.6
20260509074516 59 0.0 0.0 0.00 0.01 0.01 82 1017.7
20260509073516 59 0.0 0.0 0.00 0.01 0.01 82 1017.6
20260509072517 60 0.0 0.0 0.00 0.01 0.01 84 1017.5
20260509071516 59 0.0 0.0 0.00 0.01 0.01 86 1017.6
20260509070516 58 0.0 0.0 0.00 0.01 0.01 89 1017.3
20260509065516 57 0.0 0.0 0.00 0.01 0.01 91 1017.3
20260509064516 56 0.0 0.0 0.00 0.01 0.01 92 1017.4
20260509063536 56 0.0 0.0 0.00 0.01 0.01 93 1017.2
20260509062516 54 0.0 0.0 0.00 0.01 0.01 93 1017.1
20260509061516 53 0.0 0.0 0.00 0.01 0.01 93 1017.1
20260509060516 52 0.0 0.0 0.00 0.01 0.01 93 1017.1
20260509055516 52 0.0 0.0 0.00 0.01 0.01 92 1017.1
20260509054516 51 0.0 0.0 0.00 0.01 0.01 92 1017.0
20260509053516 50 0.0 0.0 0.00 0.01 0.01 92 1017.0
20260509052516 50 0.0 0.0 0.00 0.01 0.01 91 1017.0
20260509051516 50 0.0 0.0 0.00 0.01 0.01 91 1016.8
20260509050516 50 0.0 0.0 0.00 0.01 0.01 90 1016.5
20260509045516 50 0.0 0.0 0.00 0.01 0.01 90 1016.5
20260509044536 50 0.0 0.0 0.00 0.01 0.01 90 1016.6
20260509043516 50 0.0 0.0 0.00 0.01 0.01 90 1016.4
20260509042516 50 0.0 0.0 0.00 0.01 0.01 90 1016.4
20260509041516 51 0.0 0.0 0.00 0.01 0.01 90 1016.4
20260509040516 51 0.0 0.0 0.00 0.01 0.01 90 1016.6
20260509035516 51 0.0 0.0 0.00 0.01 0.01 90 1016.7
20260509034536 51 0.0 0.0 0.00 0.01 0.01 90 1016.6
20260509033516 51 0.0 0.0 0.00 0.01 0.01 90 1016.6
20260509032536 52 0.0 0.0 0.00 0.01 0.01 90 1016.6
20260509031516 51 0.0 0.0 0.00 0.01 0.01 90 1016.6
20260509030516 52 0.0 0.0 0.00 0.01 0.01 89 1016.6
20260509024516 52 0.0 0.0 0.00 0.01 0.01 89 1016.5
20260509023516 52 0.0 0.0 0.00 0.01 0.01 89 1016.5
20260509022516 52 0.0 0.0 0.00 0.01 0.01 89 1016.5
20260509021516 52 0.0 0.0 0.00 0.01 0.01 88 1016.5
20260509020516 52 0.0 0.0 0.00 0.01 0.01 88 1016.4
20260509015516 52 0.0 0.0 0.00 0.01 0.01 88 1016.4
20260509014516 52 0.0 0.0 0.00 0.01 0.01 88 1016.3
20260509013516 52 0.0 0.0 0.00 0.01 0.01 87 1016.3
20260509012516 52 0.0 0.0 0.00 0.01 0.01 87 1016.3
20260509011516 52 0.0 0.0 0.00 0.01 0.01 86 1016.2
20260509010536 52 0.0 0.0 0.00 0.01 0.01 86 1016.1
20260509005516 53 0.0 0.0 0.00 0.01 0.01 85 1016.1
20260509004516 53 0.0 0.0 0.01 0.01 0.01 85 1016.1
20260509003516 53 0.0 0.0 0.01 0.01 0.01 84 1016.0
20260509002516 54 0.0 0.0 0.01 0.01 0.01 84 1016.0
20260509001516 54 0.0 0.0 0.01 0.01 0.01 83 1016.1
20260509000516 55 0.0 0.0 0.01 0.01 0.01 83 1016.2
20260508235516 55 0.0 0.0 0.01 0.01 0.01 83 1016.3
20260508234515 55 0.0 1.0 0.00 0.00 0.00 83 1016.3
20260508233516 55 0.0 0.0 0.00 0.00 0.00 82 1016.1
20260508232516 56 0.0 0.0 0.00 0.00 0.00 82 1016.4
20260508231516 56 0.0 0.0 0.00 0.00 0.00 81 1016.4
20260508230516 56 0.0 0.0 0.00 0.00 0.00 81 1016.5
20260508225515 56 0.0 0.0 0.00 0.00 0.00 81 1016.8
20260508224516 56 0.0 1.0 0.00 0.00 0.00 80 1016.9
20260508223515 57 0.0 0.0 0.00 0.00 0.00 80 1017.1
20260508222535 57 0.0 2.0 0.00 0.00 0.00 79 1017.1
20260508221516 57 0.0 0.0 0.00 0.00 0.00 78 1017.0
20260508220515 58 338 1.0 4.0 0.00 0.00 0.00 77 1016.9
20260508215516 58 338 1.0 3.0 0.00 0.00 0.00 77 1016.9
20260508214517 58 0.0 5.0 0.00 0.00 0.00 76 1016.7
20260508213516 58 0.0 3.0 0.00 0.00 0.00 76 1016.6
20260508212516 58 0.0 0.0 0.00 0.00 0.00 74 1016.5
20260508211516 57 0.0 2.0 0.00 0.00 0.00 74 1016.2
20260508210516 57 0.0 0.0 0.00 0.00 0.00 74 1016.0
20260508205517 57 0.0 0.0 0.00 0.00 0.00 73 1015.7
20260508204536 57 0.0 0.0 0.00 0.00 0.00 73 1015.4
20260508203516 57 0.0 0.0 0.00 0.00 0.00 73 1015.4
20260508202516 58 0.0 0.0 0.00 0.00 0.00 72 1015.4
20260508201536 58 0.0 0.0 0.00 0.00 0.00 71 1015.1
20260508200516 58 0.0 0.0 0.00 0.00 0.00 71 1015.0
20260508195536 59 0.0 0.0 0.00 0.00 0.00 70 1014.9
20260508194516 59 0.0 0.0 0.00 0.00 0.00 69 1014.7
20260508193516 60 0.0 0.0 0.00 0.00 0.00 68 1014.6
20260508192516 60 0.0 0.0 0.00 0.00 0.00 67 1014.4
20260508191516 61 0.0 0.0 0.00 0.00 0.00 66 1014.2
20260508190536 61 0.0 0.0 0.00 0.00 0.00 65 1014.0
20260508185536 62 0.0 0.0 0.00 0.00 0.00 64 1013.9
20260508184516 63 0.0 0.0 0.00 0.00 0.00 62 1013.7
20260508183516 64 0.0 0.0 0.00 0.00 0.00 60 1013.7
20260508182536 65 0.0 0.0 0.00 0.00 0.00 59 1013.6
20260508181516 66 0.0 0.0 0.00 0.00 0.00 57 1013.4
20260508180516 67 0.0 0.0 0.00 0.00 0.00 55 1013.3
20260508175516 67 0.0 0.0 0.00 0.00 0.00 52 1013.2
20260508174516 67 0.0 0.0 0.00 0.00 0.00 51 1012.9
20260508173516 68 0.0 0.0 0.00 0.00 0.00 50 1012.7
20260508172516 68 0.0 0.0 0.00 0.00 0.00 49 1012.8
20260508171517 68 0.0 0.0 0.00 0.00 0.00 49 1012.6
20260508170516 68 0.0 0.0 0.00 0.00 0.00 49 1012.7
20260508165516 68 0.0 2.0 0.00 0.00 0.00 49 1012.7
20260508164516 68 0.0 1.0 0.00 0.00 0.00 49 1012.7
20260508163516 68 0.0 2.0 0.00 0.00 0.00 50 1012.7
20260508162516 69 0.0 2.0 0.00 0.00 0.00 48 1012.7
20260508161536 69 0.0 1.0 0.00 0.00 0.00 50 1012.6
20260508160516 69 0.0 2.0 0.00 0.00 0.00 49 1012.7
20260508155516 69 0.0 2.0 0.00 0.00 0.00 49 1012.8
20260508154516 69 0.0 5.0 0.00 0.00 0.00 48 1012.9
20260508153536 68 0.0 3.0 0.00 0.00 0.00 48 1012.9
20260508152516 69 0.0 2.0 0.00 0.00 0.00 50 1013.0
20260508151516 69 0.0 2.0 0.00 0.00 0.00 49 1013.0
20260508150516 68 0.0 2.0 0.00 0.00 0.00 53 1013.1
20260508145516 68 0.0 3.0 0.00 0.00 0.00 52 1013.3
20260508144516 68 0.0 1.0 0.00 0.00 0.00 51 1013.3
20260508143516 68 0.0 1.0 0.00 0.00 0.00 54 1013.5
20260508142516 67 0.0 3.0 0.00 0.00 0.00 54 1013.6
20260508141516 67 0.0 3.0 0.00 0.00 0.00 57 1013.7
20260508140516 67 0.0 1.0 0.00 0.00 0.00 53 1013.7
20260508135516 67 0.0 4.0 0.00 0.00 0.00 56 1013.9
20260508134556 67 0.0 3.0 0.00 0.00 0.00 55 1014.0
20260508133516 66 338 1.0 3.0 0.00 0.00 0.00 57 1014.2
20260508132516 67 0.0 2.0 0.00 0.00 0.00 57 1014.4
20260508131516 66 0.0 1.0 0.00 0.00 0.00 63 1014.6